Domov               UVHVVR             MKGP            O straneh              
ZDRAVSTVENO VARSTVO RASTLIN
  MREŽA AGROMET. POSTAJ
 ► PROGNOSTIČNA OBVESTILA
AGROMETEOROLOŠKI PODATKI -
ARSO
OBVLADOVANJE TVEGANJ ZARADI
NEUGODNIH VREMENSKIH RAZMER
  ► NARAVNE NESREČE
  ► SUŠA/MOČA
  ► NAMAKANJE
  ► ŽLED (gozdarstvo)
KARTOGRAFSKI PRIKAZI
SPLETNE POVEZAVE
PROJEKTI IN PUBLIKACIJE

AGROMETEOROLOŠKA MREŽA: VREMENSKE POSTAJE IN FENOLOŠKA OPAZOVANJA

Pregled podatkov za lokacijo Potoče, meteorološka postaja 861648

Pregled senzorjev na lokaciji

ID Ime Zadnja
vrednost
Datum
zadnje
spremembe
Tip
senzorja
4070 Temperatura 2 m ( °C) 13,16 °C 23.10.2017 11:00 50YA
4071 Relativna vlaga 2 m (% RH) 70,78 % RH 23.10.2017 11:00 50YA
4072 Omočenost lista (U) 0 U 23.10.2017 11:00 A730WET
4073 Padavine 0.2 mm (mm) 0 mm 23.10.2017 10:59 Rain-O-Matic

Pregled podatkov zadnjih 24 ur

Zap.
št.
Datum in čas Potoče
Omočenost
lista
Padavine
0.2
mm
Relativna
vlaga
2
m
Temperatura
2
m
0 23.10.2017 10:00 0 0 70,78 13,16
1 23.10.2017 09:30 0 0 75,21 12,25
2 23.10.2017 09:00 1 0 76,48 11,66
3 23.10.2017 08:30 10 0 87,71 10,22
4 23.10.2017 08:00 10 0 98,5 7,06
5 23.10.2017 07:30 10 0 97,92 5,49
6 23.10.2017 07:00 9 0 97,17 5,82
7 23.10.2017 06:30 7 0 96,91 6,64
8 23.10.2017 06:00 3 0 96,29 7,1
9 23.10.2017 05:30 2 0 95,39 7,5
10 23.10.2017 05:00 1 0 94,22 7,85
11 23.10.2017 04:30 0 0 91,83 8,23
12 23.10.2017 04:00 0 0 86,37 8,9
13 23.10.2017 03:30 0 0 78,37 9,81
14 23.10.2017 03:00 0 0 70,64 10,65
15 23.10.2017 02:30 0 0 60,53 11,62
16 23.10.2017 02:00 0 0 53,98 12,43
17 23.10.2017 01:30 0 0 53,19 12,57
18 23.10.2017 01:00 0 0 53,83 12,45
19 23.10.2017 00:30 0 0 54,91 12,31
20 23.10.2017 00:00 0 0 53,29 12,58
21 22.10.2017 23:30 0 0 51,07 12,97
22 22.10.2017 23:00 0 0 53,06 12,72
23 22.10.2017 22:30 0 0 55,57 12,4
24 22.10.2017 22:00 0 0 57,51 12,24
25 22.10.2017 21:30 0 0 61,66 11,72
26 22.10.2017 21:00 0 0 68,91 10,95
27 22.10.2017 20:30 0,8 71,86 10,68
28 22.10.2017 20:00 0 0 73,98 10,57
29 22.10.2017 19:30 3 0,6 79,13 10,31
30 22.10.2017 19:00 8 0,2 79,03 10,7
31 22.10.2017 18:30 5 0,2 76,94 11,21
32 22.10.2017 18:00 9 0,2 79,18 11,54
33 22.10.2017 17:30 9 0,8 81,26 11,68
34 22.10.2017 17:00 8 1,8 85,26 11,69
35 22.10.2017 16:30 7 3 85,41 12,16
36 22.10.2017 16:00 4 0,6 85,97 12,64
37 22.10.2017 15:30 3 0 79,14 13,92
38 22.10.2017 15:00 4 0 82,25 13,94
39 22.10.2017 14:30 1 0 80,66 14,65
40 22.10.2017 14:00 0 0 90,98 14,72
41 22.10.2017 13:30 0,2 99,09 15,09
42 22.10.2017 13:00 0 0 99,03 15,02
43 22.10.2017 12:30 1 0,6 99 14,76
44 22.10.2017 12:00 1 11 98,33 14,54
© 2011 Ministrstvo za kmetijstvo, gozdarstvo in prehrano. Vse pravice pridržane.